www.pogodaiklimat.ru

Погода и климат >> Архив погоды >> Италия >> Катандзаро


ПОГОДА в Катандзаро

  • Прогноз погоды в Катандзаро
  • Монитор погоды в Катандзаро

АРХИВ ПОГОДЫ в Катандзаро

Время (UTC), дата Ветер
(напр.,м/с)
 
Видим.   Явления Облачность Т
(С)
Тd
(С)
f
(%)
Тe
(С)
Тes
(С)
Комфортность P
(гПа)
Po
(гПа)
Тmin
(С)
Tmax
(С)
R
(мм)
R24
(мм)
S
(см)
01 16.04 СЗ 1 н/о н/о +10.2 +4.5 68 +10 +10 1017.9 977.8
02 16.04 СЗ 3 н/о н/о +10.5 +3.7 63 +9 +9 1017.7 977.7
03 16.04 С 2 н/о н/о +10.2 +2.9 60 +9 +9 1018.0 977.9
04 16.04 СЗ 2 н/о н/о +10.4 +2.9 60 +9 +9 1018.2 978.1
05 16.04 СЗ 4 н/о н/о +10.1 +2.4 59 +8 +8 1018.8 978.7
06 16.04 СЗ 4 н/о н/о +10.6 +5.3 70 +8 +8 1019.5 979.4 +10.0 208
07 16.04 З 2 н/о н/о +11.8 +5.6 66 +11 +11 1019.6 979.6
08 16.04 З 5 н/о н/о +12.3 +6.5 68 +10 +10 1019.7 979.8
09 16.04 З 3 н/о н/о +13.8 +6.3 61 +13 +13 1019.7 980.0
10 16.04 З 4 н/о н/о +14.7 +6.2 57 +14 +14 1019.5 979.9
11 16.04 З 3 н/о н/о +15.3 +6.0 54 +15 +15 1019.3 979.9
12 16.04 З 2 н/о н/о +15.4 +5.8 53 +15 +15 1019.3 979.8
13 16.04 З 3 н/о н/о +15.9 +5.1 49 +16 +16 1019.0 979.6
14 16.04 С 1 н/о н/о +15.8 +5.6 51 +17 +17 1018.8 979.4
15 16.04 СЗ 5 н/о н/о +14.8 +5.2 53 +14 +14 1019.3 979.7
16 16.04 З 3 н/о н/о +14.3 +5.6 56 +14 +14 1019.2 979.6
17 16.04 З 2 н/о н/о +14.0 +5.8 58 +14 +14 1019.3 979.6
18 16.04 З 5 н/о н/о +12.7 +5.1 60 +11 +11 1019.7 979.9 +16.5
19 16.04 СЗ 2 н/о н/о +11.9 +7.2 73 +11 +11 1020.1 980.1
20 16.04 СЗ 5 н/о н/о +11.4 +6.9 74 +9 +9 1020.1 980.1
21 16.04 З 4 н/о н/о +11.4 +4.1 61 +10 +10 1019.9 979.9
22 16.04 З 5 н/о н/о +11.3 +3.5 59 +9 +9 1020.1 980.0
23 16.04 З 4 н/о н/о +11.2 +2.9 57 +9 +9 1020.1 980.0
00 17.04 СЗ 4 н/о н/о +11.2 +1.9 53 +9 +9 1019.5 979.5
01 17.04 З 5 н/о н/о +11.1 +3.1 58 +9 +9 1019.5 979.4
02 17.04 З 4 н/о н/о +10.8 +2.0 55 +9 +9 1019.1 979.0
03 17.04 З 4 н/о н/о +11.1 +3.3 59 +9 +9 1018.8 978.8
04 17.04 СЗ 4 н/о н/о +10.9 +4.5 65 +9 +9 1019.3 979.2
05 17.04 СЗ 3 н/о н/о +11.0 +5.7 70 +9 +9 1019.4 979.3
06 17.04 СЗ 4 н/о н/о +11.4 +4.8 64 +9 +9 1019.5 979.5 +10.8 6
07 17.04 СЗ 5 н/о н/о +11.7 +6.6 71 +9 +9 1019.8 979.8
08 17.04 З 4 н/о н/о +12.8 +7.0 68 +11 +11 1019.9 980.1
09 17.04 З 3 н/о н/о +13.2 +6.5 64 +12 +12 1020.0 980.2
10 17.04 З 2 н/о н/о +14.5 +7.0 61 +14 +14 1019.8 980.2
11 17.04 З 4 н/о н/о +15.5 +6.7 56 +15 +15 1019.3 979.8
12 17.04 З 4 н/о н/о +14.5 +5.5 55 +14 +14 1019.5 979.9
13 17.04 С 3 н/о н/о +12.5 +7.3 71 +11 +11 1019.9 980.0
14 17.04 СЗ 2 н/о н/о +12.6 +8.2 75 +12 +12 1019.8 979.9
15 17.04 СЗ 3 н/о н/о +12.0 +6.6 70 +10 +10 1019.6 979.7
16 17.04 СЗ 6 н/о н/о +12.0 +5.6 65 +9 +9 1019.3 979.4
17 17.04 СЗ 6 н/о н/о +12.4 +4.8 60 +10 +10 1019.1 979.2
18 17.04 СЗ 3 н/о н/о +12.1 +5.4 64 +11 +11 1019.2 979.3 +15.9 1
19 17.04 СЗ 6 н/о н/о +12.2 +5.5 64 +10 +10 1019.9 980.0
20 17.04 З 4 н/о н/о +12.1 +5.7 65 +10 +10 1020.4 980.4
21 17.04 З 3 н/о н/о +12.0 +5.8 66 +11 +11 1020.3 980.3
22 17.04 З 4 н/о н/о +11.5 +5.5 67 +9 +9 1020.5 980.5
23 17.04 СЗ 4 н/о н/о +11.4 +6.7 73 +9 +9 1021.0 980.9
00 18.04 З 3 н/о н/о +11.3 +6.0 70 +10 +10 1021.1 981.0
01 18.04 СЗ 5 н/о н/о +11.2 +6.1 71 +9 +9 1020.8 980.7
02 18.04 З 3 н/о н/о +11.0 +4.4 64 +9 +9 1020.6 980.5
03 18.04 СЗ 3 н/о н/о +10.8 +2.0 55 +9 +9 1020.6 980.5
04 18.04 СЗ 3 н/о н/о +11.1 +0.4 48 +10 +10 1020.7 980.6
05 18.04 СЗ 4 н/о н/о +10.5 +4.1 65 +8 +8 1021.3 981.1
06 18.04 СЗ 2 н/о н/о +11.3 +3.0 57 +10 +10 1021.6 981.5 +10.0 104
07 18.04 З 1 н/о н/о +12.4 +4.5 59 +13 +13 1021.7 981.7
08 18.04 ЮЗ 3 н/о н/о +14.4 +4.9 53 +14 +14 1021.5 981.8
09 18.04 Ю 3 н/о н/о +15.0 +2.4 43 +14 +14 1021.6 982.0
10 18.04 ЮВ 4 н/о н/о +16.0 +5.8 51 +15 +15 1021.3 981.9
11 18.04 Ю 5 н/о н/о +15.9 +3.9 45 +15 +15 1021.3 981.8
12 18.04 ЮВ 4 н/о н/о +15.9 +4.2 46 +15 +15 1021.4 981.9
13 18.04 ЮВ 2 н/о н/о +15.0 +4.9 51 +15 +15 1021.5 981.9
14 18.04 ЮВ 3 н/о н/о +14.3 +5.3 55 +13 +13 1021.9 982.2
15 18.04 ЮВ 3 н/о н/о +13.8 +4.0 52 +13 +13 1022.0 982.2
16 18.04 Ю 3 н/о н/о +13.7 +5.0 56 +13 +13 1022.0 982.2
17 18.04 штиль 0 н/о н/о +13.5 +5.3 58 +13 +13 1022.3 982.5
18 18.04 В 1 н/о н/о +12.8 +5.2 60 +14 +14 1022.9 982.9 +16.4
19 18.04 С 1 н/о н/о +12.4 +5.0 61 +13 +13 1023.4 983.4
20 18.04 штиль 0 н/о н/о +12.5 +3.6 55 +12 +12 1023.9 983.9
21 18.04 штиль 0 н/о н/о +12.4 +4.0 57 +12 +12 1024.6 984.5
22 18.04 СВ 3 н/о н/о +11.8 +4.4 60 +11 +11 1024.9 984.7
23 18.04 СВ 2 н/о н/о +12.3 +3.2 54 +12 +12 1025.0 984.9
00 19.04 Ю 1 н/о н/о +11.8 +3.2 56 +12 +12 1025.2 985.0
01 19.04 штиль 0 н/о н/о +11.6 +2.8 55 +11 +11 1024.9 984.7
02 19.04 штиль 0 н/о н/о +10.8 +2.8 58 +10 +10 1024.8 984.5
03 19.04 З 2 н/о н/о +10.6 +2.8 58 +10 +10 1024.9 984.6
04 19.04 З 2 н/о н/о +10.7 +1.4 53 +10 +10 1025.3 985.0
05 19.04 З 1 н/о н/о +11.1 +0.7 49 +11 +11 1025.6 985.3
06 19.04 З 2 н/о н/о +12.0 0.0 44 +12 +12 1025.8 985.6 +10.6 1
07 19.04 ЮЗ 2 н/о н/о +13.2 +0.8 43 +13 +13 1025.9 985.9
08 19.04 Ю 1 н/о н/о +13.4 +1.3 44 +15 +15 1026.2 986.2
09 19.04 Ю 2 н/о н/о +14.5 +2.6 45 +15 +15 1026.3 986.5
10 19.04 Ю 3 н/о н/о +14.9 +3.0 45 +15 +15 1026.4 986.6
11 19.04 Ю 5 н/о н/о +14.8 +3.5 47 +13 +13 1026.2 986.4
12 19.04 Ю 4 н/о н/о +15.1 +4.7 50 +14 +14 1026.1 986.4
13 19.04 Ю 4 н/о н/о +14.8 +4.7 51 +14 +14 1026.1 986.3
14 19.04 Ю 2 н/о н/о +14.3 +6.1 58 +14 +14 1026.0 986.1
15 19.04 Ю 1 н/о н/о +14.0 +6.3 60 +15 +15 1025.9 986.0
16 19.04 ЮВ 2 н/о н/о +14.2 +7.2 63 +14 +14 1025.9 986.0
17 19.04 Ю 2 н/о н/о +13.9 +7.1 64 +14 +14 1025.9 986.0
18 19.04 Ю 1 н/о н/о +13.2 +6.5 64 +13 +13 1026.1 986.1 +15.8
19 19.04 штиль 0 н/о н/о +13.0 +5.6 61 +13 +13 1026.7 986.6
20 19.04 штиль 0 н/о н/о +12.8 +5.4 61 +13 +13 1026.8 986.7
21 19.04 штиль 0 н/о н/о +12.8 +5.2 60 +13 +13 1026.8 986.7
22 19.04 З 1 н/о н/о +13.0 +4.6 57 +14 +14 1026.5 986.4
23 19.04 СВ 1 н/о н/о +12.6 +4.7 59 +14 +14 1026.3 986.2
00 20.04 штиль 0 н/о н/о +12.6 +4.0 56 +12 +12 1026.0 985.9
01 20.04 С 1 н/о н/о +11.9 +3.3 56 +12 +12 1025.7 985.5
02 20.04 штиль 0 н/о н/о +12.0 +2.9 54 +12 +12 1025.3 985.1
03 20.04 штиль 0 н/о н/о +11.7 +3.4 57 +11 +11 1025.0 984.8
04 20.04 штиль 0 н/о н/о +11.3 +2.5 55 +11 +11 1025.1 984.9
05 20.04 З 1 н/о н/о +11.7 +1.5 50 +12 +12 1025.2 985.0
06 20.04 З 2 н/о н/о +12.7 +0.3 43 +13 +13 1025.0 985.0 +11.2 1
07 20.04 З 2 н/о н/о +13.3 +1.2 44 +13 +13 1025.1 985.2
08 20.04 Ю 1 н/о н/о +14.2 +1.7 43 +16 +16 1025.2 985.3
09 20.04 З 2 н/о н/о +15.7 +1.3 38 +16 +16 1024.8 985.2
10 20.04 Ю 3 н/о н/о +16.5 +0.9 35 +16 +16 1024.6 985.1
11 20.04 Ю 2 н/о н/о +16.4 0.0 33 +17 +17 1024.3 984.9
12 20.04 ЮВ 4 н/о н/о +17.0 +0.5 33 +17 +17 1023.9 984.5
13 20.04 ЮВ 4 н/о н/о +16.9 +0.8 34 +16 +16 1023.8 984.4
14 20.04 ЮВ 4 н/о н/о +16.4 +1.2 36 +16 +16 1023.5 984.0
15 20.04 В 4 н/о н/о +15.5 +3.5 45 +15 +15 1023.6 984.0
16 20.04 ЮВ 3 н/о н/о +15.1 +4.4 49 +15 +15 1023.6 983.9
17 20.04 ЮВ 2 н/о н/о +14.2 +5.5 56 +14 +14 1023.6 983.8
18 20.04 В 1 н/о н/о +13.1 +5.4 60 +14 +14 1023.8 983.8 +17.8
19 20.04 В 1 н/о н/о +12.6 +4.7 59 +14 +14 1023.9 983.9
20 20.04 СВ 1 н/о н/о +12.2 +3.8 56 +12 +12 1024.5 984.4
21 20.04 СВ 1 н/о н/о +11.9 +3.8 58 +13 +13 1024.4 984.3
22 20.04 штиль 0 н/о н/о +12.3 +3.2 54 +12 +12 1024.3 984.2
23 20.04 В 3 н/о н/о +12.3 +4.2 58 +11 +11 1023.9 983.9
00 21.04 В 1 н/о н/о +12.3 +5.8 64 +12 +12 1023.8 983.8
01 21.04 В 4 н/о н/о +12.6 +3.4 53 +11 +11 1023.3 983.3
02 21.04 З 2 н/о н/о +13.0 +1.2 45 +13 +13 1023.2 983.3
03 21.04 В 2 н/о н/о +12.9 +0.8 44 +12 +12 1023.1 983.2
04 21.04 СВ 2 н/о н/о +12.8 +1.4 46 +12 +12 1023.3 983.3
05 21.04 В 2 н/о н/о +12.8 +2.0 48 +12 +12 1023.3 983.3
06 21.04 В 3 н/о н/о +12.7 +2.4 49 +12 +12 1023.4 983.4 +11.8 1
07 21.04 В 3 н/о н/о +12.8 +4.7 58 +12 +12 1023.8 983.8
08 21.04 В 2 н/о н/о +12.7 +8.5 76 +12 +12 1024.3 984.3
09 21.04 В 3 н/о н/о +13.3 +8.9 75 +12 +12 1024.2 984.2
10 21.04 В 3 н/о н/о +13.2 +8.6 74 +12 +12 1023.7 983.8
11 21.04 В 4 н/о н/о +13.2 +9.0 76 +12 +12 1023.0 983.1
12 21.04 В 4 н/о н/о +12.7 +9.9 83 +11 +11 1022.9 982.9
13 21.04 ЮВ 4 н/о н/о +12.7 +9.7 82 +11 +11 1022.7 982.7
14 21.04 В 2 н/о н/о +12.9 +9.7 81 +12 +12 1021.9 982.0
15 21.04 В 5 н/о н/о +12.8 +9.8 82 +11 +11 1021.4 981.5
16 21.04 В 3 н/о н/о +12.8 +9.6 81 +11 +11 1020.9 981.0
17 21.04 В 2 н/о н/о +12.4 +9.9 85 +12 +12 1020.6 980.7
18 21.04 В 3 н/о н/о +12.2 +10.2 88 +11 +11 1020.3 980.4 +13.5
19 21.04 В 3 н/о н/о +12.1 +10.3 89 +11 +11 1020.8 980.8
20 21.04 В 3 н/о н/о +12.0 +9.9 87 +10 +10 1020.9 980.9
21 21.04 С 2 н/о н/о +11.8 +9.7 87 +11 +11 1020.2 980.2
22 21.04 В 3 н/о н/о +11.9 +9.8 87 +10 +10 1020.2 980.2
23 21.04 В 2 н/о н/о +11.8 +9.9 88 +11 +11 1020.1 980.1
00 22.04 В 3 н/о н/о +11.8 +10.2 90 +10 +10 1019.5 979.5
01 22.04 В 3 н/о н/о +11.6 +10.0 90 +10 +10 1019.0 979.0
02 22.04 В 4 н/о н/о +11.6 +9.5 87 +10 +10 1018.8 978.8
03 22.04 В 4 н/о н/о +11.5 +9.2 86 +9 +9 1017.8 977.9
04 22.04 В 4 н/о н/о +11.5 +9.4 87 +9 +9 1017.6 977.7
05 22.04 В 2 н/о н/о +11.6 +9.7 88 +10 +10 1017.9 978.0
06 22.04 В 4 н/о н/о +11.9 +9.8 87 +10 +10 1017.5 977.6 +11.4 1
07 22.04 В 3 н/о н/о +12.1 +10.0 87 +10 +10 1017.4 977.6
08 22.04 В 4 н/о н/о +12.4 +9.6 83 +10 +10 1017.5 977.7
09 22.04 СЗ 4 н/о н/о +12.6 +9.9 84 +11 +11 1017.5 977.7
10 22.04 В 6 н/о н/о +12.7 +9.9 83 +10 +10 1017.1 977.4
11 22.04 В 4 н/о н/о +12.9 +9.5 80 +11 +11 1016.9 977.2
12 22.04 В 3 н/о н/о +12.2 +9.9 86 +11 +11 1016.8 977.0 0.4
13 22.04 В 4 н/о н/о +12.2 +9.7 85 +10 +10 1015.7 976.0
14 22.04 СВ 4 н/о н/о +12.4 +9.4 82 +11 +11 1014.1 974.4
15 22.04 В 6 н/о н/о +12.6 +9.4 81 +10 +10 1014.8 975.1
16 22.04 В 3 н/о н/о +12.5 +8.9 79 +11 +11 1014.1 974.5
17 22.04 В 5 н/о н/о +12.4 +8.0 75 +10 +10 1012.9 973.3
18 22.04 СВ 2 н/о н/о +12.2 +8.8 80 +12 +12 1015.1 975.4 +13.1 0.6
19 22.04 СВ 3 н/о н/о +12.1 +8.3 78 +11 +11 1015.3 975.6
20 22.04 ЮВ 3 н/о н/о +12.2 +8.2 77 +11 +11 1014.6 974.9
22 22.04 СЗ 5 н/о н/о +12.0 +8.6 80 +10 +10 1013.5 973.8
23 22.04 В 4 н/о н/о +12.1 +9.1 82 +10 +10 1013.1 973.4

 

Местоположение метеостанции Катандзаро (Италия): широта 38.90 долгота 16.60 высота над уровнем моря 343 м.

В архиве по умолчанию представлена погода в Катандзаро за последнюю неделю. Архивные данные за месяц целиком и за предыдущие месяцы, начиная с января 2011 года, Вы можете получить, выбрав интересующий диапазон дат из раскрывающегося списка и нажав кнопку "Ввод!".


*Определитесь, кто Вы:
робот инопланетянин человек

Внимание! Время в таблицах - всемирное. Для получения местного времени необходимо прибавить поправку, которая равна 1 ч.

Смотрите также архив погоды в соседних городах и на ближайших метеорологических станциях:

Погода в Серральта-ди-сан-Вито (Италия) (22 км)
Погода в Ламеция-Терме (Италия) (30 км)
Погода на Монте Скеро (Италия) (51 км)
Погода в Пунто Алисе (Италия) (74 км)
Погода в Бонифати (Италия) (98 км)
Погода на Капо Стартивенто (Италия) (118 км)
Погода в Мессине (Италия) (120 км)
Погода в Латронико (Италия) (140 км)
Погода на Острове Салина (Италия) (154 км)
Погода на Капо Палинуро (Италия) (168 км)

Пояснения к столбцам:

Ветер - указаны скорость ветра в м/с - средняя за 10 мин, порывы в срок и между сроками (в фигурных скобках) и направление, откуда дует ветер: С - северный, СВ - северо-восточный, В - восточный, ЮВ - юго-восточный, Ю - южный, ЮЗ - юго-западный, З - западный, СЗ - северо-западный.
Видимость - горизонтальная дальность видимости в метрах или километрах. При видимости от 1 до 10 км при отсутствии осадков обычно наблюдается дымка, при ухудшении видимости до 1 км и менее - туман. В сухую погоду видимость может ухудшаться дымом, пылью или мглою.
Явления - указаны атмосферные явления, наблюдавшиеся в срок или в последний час перед сроком; фигурными скобками обозначены явления, наблюдавшиеся между сроками (за 1-3 часа до срока); квадратными скобками обозначены град или гололедные отложения с указанием их диаметра в мм.
Облачность - указаны через наклонную черту общая и нижняя облачность в баллах и высота нижней границы облаков в метрах; квадратными скобками обозначены формы облаков: Ci - перистые, Cs - перисто-слоистые, Cc - перисто-кучевые, Ac - высококучевые, As - высокослоистые, Sc - слоисто-кучевые, Ns - слоисто-дождевые, Cu - кучевые, Cb - кучево-дождевые. Подробнее классификацию облаков см. в Атласе облаков (PDF).
T - Температура воздуха - температура, измеренная на высоте 2 м над землей.
Td - Температура точки росы - температура, при понижении до которой содержащийся в воздухе водяной пар достигнет насыщения.
f - Относительная влажность воздуха - влажноcть воздуха, измеренная на высоте 2 м над землей.
Te - Эффективная температура - температура, которую ощущает одетый по сезону человек в тени. Характеристика душности погоды. При расчете учитывается влияние влажности воздуха и скорости ветра на теплоощущения человека.
Tes - Эффективная температура на солнце - температура, которую ощущает человек, с поправкой на солнечный нагрев. Характеристика знойности погоды. Зависит от высоты солнца над горизонтом, облачности и скорости ветра. Ночью, в пасмурную погоду, а также при ветре 12 м/с и более поправка равна нулю.
P - Атмосферное давление - приведенное к уровню моря атмосферное давление.
Po - Атмосферное давление - измеренное на уровне метеостанции атмосферное давление.
Tmin - Минимальная температура - минимум температуры воздуха на высоте 2 м над землей.
Tmax - Максимальная температура - максимум температуры воздуха на высоте 2 м над землей.
R - Количество осадков - Количество выпавших осадков за период времени, мм. При наведении курсора мыши на число - период времени, за который выпало указанное количество осадков.
R24 - Количество осадков - Количество выпавших осадков за 24 часа, мм.
S - Снежный покров - Высота снежного покрова, см. При наведении курсора мыши на число - состояние снежного покрова и степень покрытия местности в баллах.